EW4389 Weather Reports


Display with metric or nautical units.
time (UTC)temp
F
wind
direction
speed
MPH
gust
MPH
rain 1hr
in
rain 24hr
in
rain mn
in
humidity
%
barometer
mb
20260902080034 72 240 3.0 9.0 0.00 0.03 0.00 32 1011.4
20260902074534 72 230 2.0 8.0 0.00 0.03 0.00 32 1011.2
20260902073037 71 286 1.0 3.0 0.00 0.03 0.00 32 1011.4
20260902071535 72 286 0.0 2.0 0.00 0.03 0.00 32 1011.5
20260902070039 72 286 0.0 4.0 0.00 0.03 0.00 32 1011.3
20260902064538 71 286 0.0 4.0 0.00 0.03 0.00 32 1011.4
20260902063029 71 286 1.0 5.0 0.00 0.03 0.00 32 1011.5
20260902061528 71 286 0.0 5.0 0.00 0.03 0.00 32 1011.7
20260902060027 71 330 0.0 4.0 0.00 0.03 0.00 32 1011.8
20260902054526 71 329 0.0 1.0 0.00 0.05 0.00 32 1011.9
20260902053025 71 330 0.0 2.0 0.00 0.05 0.00 32 1011.7
20260902051522 71 329 0.0 3.0 0.00 0.05 0.00 32 1011.7
20260902050022 71 329 0.0 3.0 0.00 0.05 0.00 32 1011.5
20260902044521 71 330 0.0 0.0 0.00 0.06 0.00 33 1011.4
20260902043020 71 330 0.0 0.0 0.00 0.06 0.00 33 1011.5
20260902041537 71 330 0.0 2.0 0.00 0.06 0.00 33 1011.3
20260902040016 71 334 0.0 1.0 0.00 0.06 0.00 33 1011.4
20260902034516 72 334 0.0 0.0 0.00 0.06 0.06 33 1011.2
20260902033014 72 330 0.0 1.0 0.00 0.06 0.06 33 1011.2
20260902031509 73 330 0.0 1.0 0.00 0.06 0.06 33 1011.2
20260902030006 73 330 0.0 1.0 0.00 0.06 0.06 33 1011.3
20260902024501 73 330 0.0 2.0 0.00 0.06 0.06 33 1011.4
20260902023057 73 334 0.0 2.0 0.00 0.06 0.06 33 1011.4
20260902021557 73 330 0.0 1.0 0.00 0.06 0.06 33 1011.6
20260902020054 74 330 0.0 0.0 0.00 0.06 0.06 33 1011.7
20260902014544 74 334 0.0 1.0 0.00 0.06 0.06 33 1011.5
20260902013039 74 334 0.0 0.0 0.00 0.06 0.06 33 1011.5
20260902011533 74 330 0.0 0.0 0.00 0.06 0.06 34 1011.3
20260902010034 74 334 0.0 0.0 0.00 0.06 0.06 35 1011.2
20260902004525 75 334 0.0 0.0 0.00 0.06 0.06 36 1011.0
20260902003021 75 334 0.0 0.0 0.00 0.06 0.06 38 1010.7
20260902001519 76 334 0.0 0.0 0.00 0.06 0.06 39 1010.4
20260902000023 77 334 0.0 0.0 0.00 0.06 0.06 40 1010.3
20260901234507 77 330 0.0 0.0 0.00 0.06 0.06 40 1010.2
20260901233002 78 330 0.0 1.0 0.00 0.06 0.06 41 1010.4
20260901231558 79 330 0.0 2.0 0.00 0.06 0.06 41 1010.6
20260901230058 79 330 1.0 3.0 0.00 0.06 0.06 43 1010.5
20260901224553 80 330 1.0 3.0 0.00 0.06 0.06 42 1010.6
20260901223107 80 330 0.0 5.0 0.00 0.06 0.06 44 1010.6
20260901221552 80 334 2.0 8.0 0.00 0.06 0.06 45 1010.6
20260901220051 80 330 3.0 8.0 0.00 0.06 0.06 43 1010.6
20260901214546 80 317 4.0 9.0 0.00 0.06 0.06 43 1010.3
20260901213038 80 349 3.0 9.0 0.00 0.06 0.06 43 1010.2
20260901211533 80 339 2.0 6.0 0.00 0.06 0.06 40 1010.2
20260901210037 80 353 2.0 6.0 0.00 0.06 0.06 45 1010.3
20260901204533 80 354 2.0 6.0 0.00 0.07 0.06 46 1010.3
20260901203043 81 348 3.0 9.0 0.00 0.07 0.06 47 1010.3
20260901201524 81 315 7.0 10.0 0.00 0.07 0.06 51 1010.2
20260901200020 81 356 5.0 13.0 0.00 0.07 0.06 52 1010.2
20260901194516 81 327 5.0 12.0 0.00 0.13 0.06 47 1010.2
20260901193013 81 330 6.0 12.0 0.00 0.13 0.06 46 1010.4
20260901191506 81 334 5.0 10.0 0.00 0.13 0.06 48 1010.5
20260901190002 81 339 6.0 11.0 0.00 0.13 0.06 46 1010.5
20260901184559 81 296 3.0 11.0 0.00 0.13 0.06 42 1010.5
20260901183053 81 328 4.0 13.0 0.00 0.13 0.06 44 1010.6
20260901181548 82 321 5.0 12.0 0.00 0.13 0.06 38 1010.4
20260901180044 81 325 6.0 14.0 0.00 0.13 0.06 35 1010.3
20260901174540 80 320 5.0 12.0 0.00 0.53 0.06 30 1010.2
20260901173035 79 271 7.0 10.0 0.00 0.53 0.06 29 1010.0
20260901171530 78 325 7.0 12.0 0.00 0.53 0.06 29 1010.1
20260901170027 77 334 4.0 10.0 0.00 0.53 0.06 30 1010.2
20260901164524 77 330 4.0 10.0 0.00 0.71 0.06 31 1010.2
20260901163025 76 294 3.0 6.0 0.00 0.71 0.06 31 1010.4
20260901161517 75 290 2.0 5.0 0.00 0.71 0.06 31 1010.3
20260901160014 74 290 0.0 2.0 0.00 0.71 0.06 31 1010.4
20260901154613 74 290 0.0 2.0 0.00 0.81 0.06 31 1010.3
20260901153010 73 290 0.0 2.0 0.00 0.81 0.06 32 1010.4
20260901151514 73 290 0.0 3.0 0.00 0.81 0.06 32 1010.4
20260901150025 73 290 1.0 5.0 0.00 0.81 0.06 32 1010.3
20260901144510 73 290 3.0 6.0 0.00 1.02 0.06 32 1010.2
20260901143006 72 291 1.0 5.0 0.00 1.02 0.06 32 1010.1
20260901141505 72 291 2.0 6.0 0.00 1.02 0.06 32 1010.1
20260901134601 71 273 1.0 7.0 0.00 1.15 0.06 32 1010.0
20260901133108 71 275 1.0 9.0 0.00 1.15 0.06 32 1010.0
20260901131600 71 287 3.0 8.0 0.00 1.15 0.06 32 1010.2
20260901130056 71 288 2.0 6.0 0.00 1.15 0.06 32 1010.3
20260901124557 71 282 3.0 9.0 0.00 1.15 0.06 32 1010.4
20260901123056 71 292 4.0 12.0 0.00 1.15 0.06 32 1010.2
20260901121556 70 280 4.0 12.0 0.00 1.15 0.06 32 1010.0
20260901120117 70 279 5.0 10.0 0.00 1.15 0.06 32 1009.9
20260901114554 70 290 3.0 11.0 0.00 1.17 0.06 32 1010.1
20260901113058 70 269 3.0 9.0 0.00 1.17 0.06 32 1010.0
20260901111552 70 273 5.0 11.0 0.00 1.17 0.06 32 1010.0
20260901110057 70 281 3.0 9.0 0.00 1.17 0.06 32 1009.9
20260901104557 70 278 5.0 12.0 0.00 1.17 0.06 32 1009.9
20260901103050 70 276 3.0 10.0 0.00 1.17 0.06 32 1009.7
20260901101554 70 275 3.0 10.0 0.00 1.17 0.06 32 1009.6
20260901100049 70 265 2.0 9.0 0.03 1.17 0.06 32 1009.6
20260901094550 70 288 2.0 8.0 0.03 1.22 0.06 32 1009.7
20260901093052 70 271 3.0 9.0 0.03 1.22 0.06 32 1009.7
20260901091558 70 286 2.0 9.0 0.03 1.22 0.06 32 1009.8
20260901090047 70 277 6.0 11.0 0.00 1.19 0.03 33 1009.9
20260901084543 69 274 5.0 11.0 0.00 1.23 0.03 33 1009.7
20260901083041 69 250 5.0 14.0 0.00 1.23 0.03 33 1009.7
20260901081538 68 241 4.0 11.0 0.00 1.23 0.03 33 1009.8